{"data":{"norad_id":55474,"intl_designator":"2023-015AB","name":"STARLINK-5689","alt_names":[],"object_type":"PAYLOAD","status":"ACTIVE","operator":null,"country":"US","launch_date":"2023-02-02","launch_site_code":"AFETR","launch_vehicle":null,"mission":null,"orbit_class":"UNKNOWN","rcs_meters":null,"size_class":null,"mass_kg":null,"dimensions":null,"purposes":["comms"],"wikipedia_slug":null,"has_3d_model":false,"image_url":null,"decayed_at":null,"tle_current":{"epoch":"2026-09-20T11:46:34.033152Z","epoch_age_seconds":101167,"freshness":"FRESH","line1":"1 55474U 23015AB  26263.49067168  .00000179  00000+0  16056-4 0  9994","line2":"2 55474  43.0052 319.9364 0001815 277.0693  82.9952 15.27576673200382","mean_motion":15.27576673,"eccentricity":0.0001815,"inclination_deg":43.0052,"raan_deg":319.9364,"arg_perigee_deg":277.0693,"mean_anomaly_deg":82.9952,"bstar":1.6056e-5,"rev_number":20038,"period_min":94.266954022805,"perigee_km":481.81375120804,"apogee_km":484.3043653772,"semimajor_km":6861.1960582926,"source":"CELESTRAK","updated_at":"2026-09-21T09:00:33.232743Z"}}}